Sharm el-Sheikh International Airport

Airport
ICAO code: 
HESH
IATA Code: 
SSH
Summary
ICAO Region: 
AFI
Territory: 
Location: 
Sharm El Sheikh, Janub Sina'
Serving: 
Sharm El Sheikh
Elevation: 
143 ft
Coordinates: 
Aerial View: 
27° 58' 43" N, 34° 23' 35.999" E
Metar
Observation
HESH 251200Z 02011KT CAVOK 35/07 Q1009 NOSIG
Station
Sharm El Sheikhintl
Date/Time
2022-05-25 12:00:00
Wind direction
20°
Wind speed
11 kts
Lowest cloud amount
clouds and visibility OK
Temperature
35°C
Dew point
7°C
Humidity
17%
QNH
1009 hPa
Weather condition
n/a

Description

International airport serving the Red Sea resort of Sharm El Sheikh.

Climatology

Hot Desert Climate (Köppen climate classification BWh) - Hot desert climates are typically found in the subtropics where there is unbroken sunshine for the whole year due to the stable descending air and high pressure, little or no precipitation. Maximum temperatures of 40°C to 45°C are not uncommon, particularly during the warmer months of the year. During colder periods of the year, night-time temperatures can drop to freezing or below due to the exceptional radiation loss under the clear skies. However, very rarely do temperatures drop far below freezing.

Runways

Designator Length Width Surface Rops
04L/22R 3081 45 ASP Yes/Yes
04R/22L 3081 45 ASP Yes/Yes
Airport map: 
Aerial View: 

Accidents and Serious Incidents at or in the vicinity of HESH

SKYbrary Partners:

Safety knowledge contributed by: